User: anonymous   Login
Location: Unspecified
(0.0000°N, 0.0000°E)
Time: 03:50:41
(UTC+00:00)
Language:

GALILEO-FM2 - Orbit

View from above orbital plane
View from above orbital plane
View from above satellite
View from above satellite

Ground track
Ground track

The orbit data is extracted from the following two-line orbital elements,

1 37847U 11060B   18318.74642722 -.00000061 +00000-0 +00000-0 0  9990
2 37847 056.2228 057.3322 0003540 292.3316 067.6502 01.70475801043877
Epoch (UTC): 14 November 2018 17:54:51
Eccentricity: 0.0003540
inclination: 56.2228°
perigee height: 23211 km
apogee height: 23232 km
right ascension of ascending node: 57.3322°
argument of perigee: 292.3316°
revolutions per day: 1.70475801
mean anomaly at epoch: 67.6502°
orbit number at epoch: 4387

The dashed part of the orbit path shows where the satellite is in the earth's shadow,  

DLR